Regional Weather Roundup
Issued by NWS

Home | Current Version | Previous Version | Graphics & Text | Print | Product List | Glossary On
Versions: 1 2 3 4 5 6 7 8 9 10 11 12 13 14 15 16 17 18 19 20 21 22 23 24 25 26 27 28 29 30 31 32 33 34 35 36 37 38 39 40 41 42 43 44 45 46 47 48 49 50
158
ASUS45 KBOU 261210
RWRCO

WEATHER ROUNDUP FOR COLORADO
NATIONAL WEATHER SERVICE DENVER/BOULDER CO
600 AM MDT MON SEP 26 2016

NOTE: "FAIR" INDICATES FEW OR NO CLOUDS BELOW 12000 FEET WITH NO
SIGNIFICANT WEATHER AND/OR OBSTRUCTIONS TO VISIBILITY.

COZ001>005-013-030-031-261300-
...NORTHWEST COLORADO...

CITY           SKY/WX    TMP DP  RH WIND       PRES   REMARKS
CRAIG          FAIR      30  27  88 W3        30.50S
HAYDEN         FAIR      36  28  75 E9        30.49F
MEEKER         FAIR      36  32  85 S3        30.49F
MOUNT WERNER   NOT AVBL
STEAMBOAT SPGS FAIR      32  31  95 CALM      30.51F
WALDEN           N/A     28  23  80 CALM      30.57R
$$

COZ006>008-011-261300-
...WEST CENTRAL VALLEYS...

CITY           SKY/WX    TMP DP  RH WIND       PRES   REMARKS
GRAND JUNCTION FAIR      47  37  68 SE12      30.41S
MONTROSE       FAIR      40  34  79 SE6       30.48R
EAGLE          FAIR      34  28  80 CALM      30.56S
RIFLE          FAIR      40  37  89 CALM      30.47S
DELTA          NOT AVBL
NUCLA          FAIR      41  34  75 E6        30.48S
$$

COZ017>023-064>068-261300-
...SOUTHWEST COLORADO...

CITY           SKY/WX    TMP DP  RH WIND       PRES   REMARKS
DURANGO        FAIR      38  33  82 N5        30.51R
CORTEZ         FAIR      37  34  89 E5        30.45R
PAGOSA SPRINGS FAIR      36  33  90 CALM      30.55S
TELLURIDE      FAIR      41  33  74 SE7       30.58S
WOLF CREEK PAS FAIR      32  28  86 MISG      30.73R
$$

COZ009-010-012-014-032>034-037-058>063-261300-
...CENTRAL COLORADO...

CITY           SKY/WX    TMP DP  RH WIND       PRES   REMARKS
ASPEN          FAIR      34  29  82 S6        30.54R WCI  29
BUENA VISTA    FAIR      31  24  75 W3        30.56F
COPPER MTN     FAIR      41  16  36 CALM      30.69S
BERTHOUD PASS  FAIR      32  19  59 E12       30.71S WCI  23
COTTONWOOD PAS FAIR      41  28  60 CALM      30.61S
GUNNISON       FAIR      28  27  93 CALM      30.57S
KREMMLING      FAIR      28  21  74 CALM      30.57S
LEADVILLE      FAIR      27  21  78 CALM      30.61R
SALIDA         FAIR      36  28  71 NW3       30.62S
SUNLIGHT       FAIR      37  32  81 E3        30.67S
WILKERSON PASS FAIR      36  23  60 N6        30.68F
$$

COZ069>075-261300-
...SAN LUIS VALLEY/SANGRE DE CRISTO MOUNTAINS...

CITY           SKY/WX    TMP DP  RH WIND       PRES   REMARKS
ALAMOSA        FAIR      31  26  82 NE5       30.53R WCI  26
LA VETA PASS   FAIR      39  30  70 MISG      30.61S
SAGUACHE       NOT AVBL
$$

COZ035-036-038>040-261300-
...NORTHERN COLORADO FRONT RANGE...

CITY           SKY/WX    TMP DP  RH WIND       PRES   REMARKS
DENVER INTL AP FAIR      44  30  57 SW6       30.41S
DMNS CITY PARK NOT AVBL
AURORA         CLEAR     42  31  64 S6        30.42F
FRONT RANGE AP FAIR      48  32  53 SW12G17   30.42S
ERIE MUNI ARPT FAIR      39  33  77 CALM      30.40F
BOULDER MUN AP FAIR      46  32  57 S5        30.40F
CENTENNIAL     FAIR      44  30  57 S6        30.42F
BROOMFIELD     FAIR      45  32  61 CALM      30.41F
FORT COLLINS   FAIR      43  34  70 CALM      30.40F
LONGMONT       FAIR      41  34  76 CALM      30.42S
$$

COZ041-046-047-076>085-087-088-261300-
...PIKES PEAK/PALMER DIVIDE AND SOUTHERN FOOTHILLS...

CITY           SKY/WX    TMP DP  RH WIND       PRES   REMARKS
COLO. SPRINGS  FAIR      39  28  64 N7        30.47F
A. F. ACADEMY  FAIR      33  27  79 N8        30.47S WCI  26
SCHRIEVER AFB  NOT AVBL
ELLICOTT       NOT AVBL
FALCON         FAIR      36  28  72 NW6       30.48F
FORT CARSON    FAIR      40  31  70 NW7       30.44F
LIMON          FAIR      30  24  78 N6        30.43F WCI  24
MONUMENT HILL  FAIR      37  28  70 SW8       30.48S
TRINIDAD       FAIR      46  32  58 W15       30.44S
$$

COZ042>045-048>051-090-091-261300-
...NORTHEAST COLORADO...

CITY           SKY/WX    TMP DP  RH WIND       PRES   REMARKS
GREELEY ARPT   FAIR      37  30  75 N3        30.40F
AKRON          FAIR      42  30  62 SW10      30.38F
BURLINGTON     FAIR      40  34  79 SW8       30.40S
WRAY           NOT AVBL
STERLING       FAIR      36  32  87 SW5       30.37S
HOLYOKE        FAIR      37  34  87 W5        30.38S
FORT MORGAN    FAIR      35  29  76 W9        30.39S WCI  28
$$

COZ086-089-092>099-261300-
...SOUTHEAST COLORADO...

CITY           SKY/WX    TMP DP  RH WIND       PRES   REMARKS
PUEBLO         FAIR      43  32  65 SW6       30.42S
LA JUNTA       FAIR      42  33  70 NE3       30.40F
LAMAR          FAIR      34  28  79 S7        30.39S WCI  28
SPRINGFIELD    NOT AVBL
$$




USA.gov is the U.S. government's official web portal to all federal, state and local government web resources and services.